STARLINK-32037, 60283

Orbit data source: Space-Track

STARLINK-32037, 60283 is a payload satellite owned by SpaceX/Seattle (US) in LEO that was launched on Sun, 28 Jul 2024 UTC via an FALCON 9 launch vehicle from the Air Force Eastern Test Range (AFETR). Payload-class satellites include a variety of spacecraft equipped with specific instruments for various scientific and technological missions. These include communications satellites like Starlink; space stations such as the ISS; scientific satellites like the Hubble; Earth observation satellites from companies like Planet Labs, Umbra, and HawkEye 360; GPS; miniature CubeSats for education and research; and military/defense satellites.

Loading next visibility...
Identifier
60283, 2024-132F
Orbit
LEO
Last TLE update
20 hours ago
Origin
Manufacturer
SpaceX/Seattle
Mission
Operational spacecraft
Bus & Motor
STARLINK V2M, Unknown motor
Mass
730 kg wet, ~700 kg dry
Launch date (UTC)
2024-07-28 (9 months ago)
Launch vehicle
FALCON 9
Launch site
Air Force Eastern Test Range (AFETR)
Object type
Payload
Rocket body
Debris
Shape & HBR
Unknown
Radar Cross Section
Large (>1 m²)

Expand to show TLE details & history

TLE from 20 hours ago
0 STARLINK-32037
1 60283U 24132F   25128.96094688  .00000418  00000-0  26246-4 0  9996
2 60283  53.1617  27.9624 0001155  88.6181 271.4952 15.30192399 44907
Epoch: 2025-05-08T23:03Z
Definitive object data (Epoch: 2025-05-08T23:03:45.81Z)
Latitude
-0.00002°
Longitude
174.99757°
Altitude
476.117 km
Speed
7.629 km/s
True Right ascension
01h 51m 50s
True Declination
0° 00' 00"
Sunlit
Object was in daylight at TLE epoch
Visualization TLE readout
Latitude
-26.0783°
Longitude
12.56097°
Altitude
483.316 km
Speed
7.623 km/s
Apparent Right ascension
15h 00m 40s
Apparent Declination
-32° 34' 38"
Sunlit
Object is in full shadow
Visualization observer readout
Local Sidereal Time
02:58:53
Azimuth
357.054° N
Elevation
-82.652°
Doppler factor
1
Orbital elements
Apogee altitude
476.286 km
Perigee altitude
474.702 km
Semi-major axis
6,853.631 km
Eccentricity
0.0001155
Inclination
53.1617°
RAAN
27.9624°
Arg. of periapsis
88.6181°
True anomaly
271.48197°
Mean anomaly
271.4952°
Eccentric anomaly
271.48858°
Mean motion
3.82527 °/min
BSTAR
0.000026246
Orbital period
94.11 mins
Loading maneuver chart data...
Loading SW <> Apogee altitude chart data...
Loading historical data...
Loading historical data...
Loading historical data...
Loading historical data...
Loading historical data...
Loading historical data...
Loading historical data...

STARLINK-32037 Visibility forecast

Observer location: undefined°, undefined°

Span
Click to sort rows by Start time (UTC) header in descending order
Start Az.
Max El. time (UTC)
Max El. Az.
Max El.
End time (UTC)
End Az.
7 mins2025-05-09 19:36:01.799Z215.094° SW2025-05-09 19:40:01.799Z103.083° ESE38.448°2025-05-09 19:43:01.799Z57.684° ENE
4 mins2025-05-09 21:16:01.799Z295.719° NW2025-05-09 21:18:01.799Z341.72° N21.078°2025-05-09 21:20:01.799Z20.78° NNE
5 mins2025-05-10 02:13:01.799Z335.203° NNW2025-05-10 02:15:01.799Z61.192° ENE35.817°2025-05-10 02:18:01.799Z111.523° ESE
|